Location: Presov
(49.0000°N, 21.2500°E)
Time: 09:56:05
(UTC+02:00)

CZ-4C DEB - Visible Passes

Search period start: 21 May 2024 00:00
Search period end: 31 May 2024 00:00
Orbit: 566 x 746 km, 97.9° (Epoch: 19 May)

Date Brightness Start Highest point End Pass type
(mag) Time Alt. Az. Time Alt. Az. Time Alt. Az.
21 May ? 00:59:13 20° ESE 01:01:52 37° ENE 01:06:19 10° N visible
21 May ? 02:37:08 24° SW 02:38:46 30° W 02:42:59 10° NNW visible
21 May ? 23:52:47 10° ENE 23:54:17 11° NE 23:55:48 10° NE visible
22 May ? 01:27:52 29° SE 01:30:09 67° ENE 01:34:58 10° N visible
22 May ? 03:05:47 14° WSW 03:07:31 17° W 03:10:37 10° NW visible
23 May ? 00:19:01 10° ESE 00:22:15 19° ENE 00:25:36 10° NNE visible
23 May ? 01:56:30 33° S 01:58:31 69° WSW 02:03:24 10° NNW visible
24 May ? 00:47:12 15° ESE 00:50:18 31° ENE 00:54:34 10° N visible
24 May ? 02:25:06 27° SW 02:27:01 38° W 02:31:33 10° NNW visible
25 May ? 01:15:46 24° SE 01:18:27 53° ENE 01:23:14 10° N visible
25 May ? 02:53:41 17° WSW 02:55:36 22° W 02:59:23 10° NW visible
26 May ? 00:07:47 10° E 00:10:36 16° NE 00:13:29 10° NNE visible
26 May ? 01:44:20 30° SSE 01:46:42 87° W 01:51:39 10° NNW visible
26 May ? 03:22:22 10° WSW 03:24:18 12° W 03:26:18 10° WNW visible
27 May ? 00:34:57 11° ESE 00:38:32 26° ENE 00:42:33 10° N visible
27 May ? 02:12:51 28° SSW 02:15:03 49° W 02:19:51 10° NNW visible
28 May ? 01:03:28 19° SE 01:06:33 42° ENE 01:11:12 10° N visible
28 May ? 02:41:22 20° SW 02:43:30 28° W 02:47:44 10° NW visible
28 May ? 23:56:32 10° E 23:58:44 13° NE 00:00:58 10° NNE visible
29 May ? 01:31:56 26° SSE 01:34:40 74° ENE 01:39:37 10° N visible
29 May ? 03:09:50 12° WSW 03:12:04 16° W 03:15:06 10° NW visible
30 May ? 00:22:57 10° ESE 00:26:32 21° ENE 00:30:13 10° NNE visible
30 May ? 02:00:23 28° S 02:02:52 63° W 02:07:49 10° NNW visible
